{"data":{"norad_id":53685,"epoch":"2026-05-25T05:16:32.505888Z","epoch_age_seconds":55459,"freshness":"FRESH","line1":"1 53685U 22105AP  26145.21982067  .00000384  00000+0  30695-4 0  9991","line2":"2 53685  97.4520  25.1067 0002714  73.8222 286.3304 15.05639153204746","mean_motion":15.05639153,"eccentricity":0.0002714,"inclination_deg":97.452,"raan_deg":25.1067,"arg_perigee_deg":73.8222,"mean_anomaly_deg":286.3304,"bstar":3.0695e-5,"rev_number":20474,"period_min":95.640445928281,"perigee_km":547.66425359687,"apogee_km":551.42459907508,"semimajor_km":6927.681426336,"source":"CELESTRAK","updated_at":"2026-05-25T13:38:17.528904Z"}}